TimeEDT,TemperatureF,Dew PointF,Humidity,Sea Level PressureIn,VisibilityMPH,Wind Direction,Wind SpeedMPH,Gust SpeedMPH,PrecipitationIn,Events,Conditions,WindDirDegrees,DateUTC
12:15 AM,44.6,41.0,87,30.38,7.0,Calm,Calm,-,N/A,,Clear,0,2013-05-04 04:15:00
12:35 AM,42.8,39.2,87,30.38,10.0,Calm,Calm,-,N/A,,Clear,0,2013-05-04 04:35:00
12:55 AM,42.8,39.2,87,30.38,1.5,Calm,Calm,-,N/A,,Mist,0,2013-05-04 04:55:00
1:15 AM,42.8,39.2,87,30.37,7.0,Calm,Calm,-,N/A,,Clear,0,2013-05-04 05:15:00
1:35 AM,42.8,39.2,87,30.36,1.2,Calm,Calm,-,N/A,,Mist,0,2013-05-04 05:35:00
1:55 AM,41.0,39.2,93,30.36,1.0,Calm,Calm,-,N/A,,Mist,0,2013-05-04 05:55:00
2:15 AM,41.0,39.2,93,30.34,0.8,Calm,Calm,-,N/A,,Mist,0,2013-05-04 06:15:00
2:35 AM,41.0,39.2,93,30.34,0.5,Calm,Calm,-,N/A,Fog,Fog,0,2013-05-04 06:35:00
2:55 AM,41.0,39.2,93,30.33,0.8,Calm,Calm,-,N/A,,Mostly Cloudy,0,2013-05-04 06:55:00
3:15 AM,41.0,37.4,87,30.33,2.0,Calm,Calm,-,N/A,,Scattered Clouds,0,2013-05-04 07:15:00
3:35 AM,39.2,37.4,93,30.32,2.5,Calm,Calm,-,N/A,,Clear,0,2013-05-04 07:35:00
3:55 AM,39.2,37.4,93,30.31,4.0,Calm,Calm,-,N/A,,Clear,0,2013-05-04 07:55:00
4:15 AM,39.2,37.4,93,30.31,5.0,Calm,Calm,-,N/A,,Clear,0,2013-05-04 08:15:00
4:35 AM,39.2,37.4,93,30.31,10.0,Calm,Calm,-,N/A,,Clear,0,2013-05-04 08:35:00
4:55 AM,39.2,35.6,87,30.31,7.0,Calm,Calm,-,N/A,,Clear,0,2013-05-04 08:55:00
5:15 AM,39.2,35.6,87,30.31,1.0,Calm,Calm,-,N/A,,Mist,0,2013-05-04 09:15:00
5:35 AM,39.2,35.6,87,30.31,1.2,Calm,Calm,-,N/A,,Mist,0,2013-05-04 09:35:00
5:55 AM,39.2,35.6,87,30.31,10.0,Calm,Calm,-,N/A,,Clear,0,2013-05-04 09:55:00
6:15 AM,37.4,35.6,93,30.32,1.2,Calm,Calm,-,N/A,,Mist,0,2013-05-04 10:15:00
6:35 AM,39.2,37.4,93,30.32,2.0,Calm,Calm,-,N/A,,Clear,0,2013-05-04 10:35:00
6:45 AM,39.2,39.2,100,30.32,10.0,Calm,Calm,-,N/A,,Clear,0,2013-05-04 10:45:00
7:45 AM,46.4,44.6,93,30.32,10.0,Calm,Calm,-,N/A,,Clear,0,2013-05-04 11:45:00
8:45 AM,55.4,44.6,67,30.32,10.0,NE,6.9,-,N/A,,Clear,50,2013-05-04 12:45:00
9:45 AM,60.8,41.0,48,30.32,10.0,Calm,Calm,-,N/A,,Clear,0,2013-05-04 13:45:00
10:45 AM,62.6,39.2,42,30.31,10.0,East,6.9,-,N/A,,Clear,80,2013-05-04 14:45:00
11:45 AM,64.4,39.2,40,30.30,10.0,East,10.4,17.3,N/A,,Clear,90,2013-05-04 15:45:00
12:45 PM,64.4,39.2,40,30.29,10.0,SE,6.9,17.3,N/A,,Clear,130,2013-05-04 16:45:00
1:50 PM,69.8,37.4,31,30.27,10.0,ESE,10.4,21.9,N/A,,Clear,120,2013-05-04 17:50:00
2:45 PM,68.0,39.2,35,30.25,10.0,ESE,8.1,16.1,N/A,,Clear,120,2013-05-04 18:45:00
3:45 PM,66.2,42.8,43,30.23,10.0,SSE,15.0,21.9,N/A,,Clear,150,2013-05-04 19:45:00
4:45 PM,64.4,41.0,42,30.24,10.0,South,13.8,24.2,N/A,,Clear,180,2013-05-04 20:45:00
5:45 PM,59.0,41.0,51,30.24,10.0,SE,12.7,20.7,N/A,,Partly Cloudy,140,2013-05-04 21:45:00
6:45 PM,55.4,41.0,58,30.26,10.0,South,10.4,-,N/A,,Clear,190,2013-05-04 22:45:00
7:45 PM,53.6,41.0,62,30.27,10.0,SSE,6.9,-,N/A,,Clear,160,2013-05-04 23:45:00
8:45 PM,50.0,41.0,71,30.28,10.0,SE,3.5,-,N/A,,Clear,130,2013-05-05 00:45:00
9:45 PM,48.2,41.0,76,30.30,10.0,SSE,4.6,-,N/A,,Clear,150,2013-05-05 01:45:00
10:55 PM,46.4,39.2,76,30.30,10.0,Calm,Calm,-,N/A,,Clear,0,2013-05-05 02:55:00
11:15 PM,44.6,39.2,81,30.29,10.0,Calm,Calm,-,N/A,,Clear,0,2013-05-05 03:15:00
11:35 PM,42.8,39.2,87,30.29,7.0,Calm,Calm,-,N/A,,Clear,0,2013-05-05 03:35:00
11:55 PM,42.8,39.2,87,30.30,7.0,Calm,Calm,-,N/A,,Clear,0,2013-05-05 03:55:00